Location: Baix
(44.7118°N, 4.7648°E)
Time: 17:38:46
(UTC+00:00)

Transit 2A - All Passes

Search period start: 04 December 2020 00:00
Search period end: 14 December 2020 00:00
Orbit: 595 x 963 km, 66.7° (Epoch: 03 December)

Date Brightness Start Highest point End Pass type
(mag) Time Alt. Az. Time Alt. Az. Time Alt. Az.
04 Dec - 01:20:30 10° NW 01:25:11 39° WSW 01:29:27 10° S night (unlit)
04 Dec - 14:18:51 10° SSE 14:23:19 21° ESE 14:27:39 10° ENE daylight
04 Dec - 15:59:43 10° SW 16:06:03 77° NW 16:12:00 10° NNE daylight
04 Dec - 17:45:47 10° W 17:50:10 20° NW 17:54:22 10° N visible
04 Dec - 23:03:16 10° NNW 23:07:31 24° NE 23:11:25 10° E night (unlit)
05 Dec - 00:46:08 10° NW 00:51:09 58° WSW 00:55:39 10° SSE night (unlit)
05 Dec - 13:46:16 10° SE 13:49:25 14° ESE 13:52:28 10° ENE daylight
05 Dec - 15:25:33 10° SSW 15:31:52 80° ESE 15:37:50 10° NE daylight
05 Dec - 17:10:42 10° W 17:15:42 25° NW 17:20:26 10° NNE visible
05 Dec - 22:29:22 10° N 22:33:02 19° NE 22:36:28 10° E night (unlit)
06 Dec - 00:11:53 10° NNW 00:17:02 86° SW 00:21:39 10° SSE night (unlit)
06 Dec - 01:58:47 10° W 01:59:09 10° W 01:59:31 10° WSW night (unlit)
06 Dec - 14:51:33 10° SSW 14:57:44 58° ESE 15:03:35 10° NE daylight
06 Dec - 16:35:48 10° WSW 16:41:17 32° NW 16:46:29 10° NNE visible
06 Dec - 18:25:48 10° NNW 18:26:23 10° NNW 18:26:57 10° NNW visible
06 Dec - 21:55:35 10° N 21:58:29 15° NNE 22:01:16 10° ENE night (unlit)
06 Dec - 23:37:43 10° NNW 23:42:51 65° NE 23:47:28 10° SE night (unlit)
07 Dec - 01:22:22 10° WNW 01:25:18 16° WSW 01:28:06 10° SW night (unlit)
07 Dec - 14:17:47 10° S 14:23:39 42° ESE 14:29:14 10° NE daylight
07 Dec - 16:01:05 10° WSW 16:06:57 41° NW 16:12:28 10° NNE daylight
07 Dec - 17:49:21 10° NW 17:51:43 12° NNW 17:54:02 10° N visible
07 Dec - 21:21:59 10° N 21:23:54 12° NNE 21:25:44 10° NE night (unlit)
07 Dec - 23:03:37 10° NNW 23:08:36 46° NE 23:13:05 10° SE night (unlit)
08 Dec - 00:47:28 10° NW 00:51:24 24° WSW 00:55:04 10° SSW night (unlit)
08 Dec - 13:44:14 10° S 13:49:37 30° ESE 13:54:47 10° NE daylight
08 Dec - 15:26:31 10° SW 15:32:39 54° NW 15:38:25 10° NNE daylight
08 Dec - 17:13:44 10° WNW 17:17:08 15° NNW 17:20:23 10° N visible
08 Dec - 22:29:35 10° NNW 22:34:16 33° NE 22:38:31 10° ESE night (unlit)
09 Dec - 00:12:54 10° NW 00:17:26 35° WSW 00:21:35 10° S night (unlit)
09 Dec - 13:11:00 10° SSE 13:15:38 22° ESE 13:20:06 10° ENE daylight
09 Dec - 14:52:08 10° SW 14:58:25 73° WNW 15:04:18 10° NNE daylight
09 Dec - 16:38:24 10° W 16:42:35 19° NW 16:46:35 10° N visible
09 Dec - 21:55:36 10° NNW 21:59:52 25° NE 22:03:47 10° E night (unlit)
09 Dec - 23:38:31 10° NW 23:43:25 53° WSW 23:47:51 10° SSE night (unlit)
10 Dec - 12:38:17 10° SE 12:41:42 15° ESE 12:45:03 10° ENE daylight
10 Dec - 14:17:55 10° SSW 14:24:14 84° ESE 14:30:09 10° NNE daylight
10 Dec - 16:03:17 10° W 16:08:06 23° NW 16:12:41 10° NNE daylight
10 Dec - 21:21:42 10° N 21:25:24 19° NE 21:28:51 10° E night (unlit)
10 Dec - 23:04:15 10° NW 23:09:19 80° WSW 23:13:53 10° SSE night (unlit)
11 Dec - 13:43:53 10° SSW 13:50:05 62° ESE 13:55:55 10° NE daylight
11 Dec - 15:28:20 10° WSW 15:33:41 30° NW 15:38:44 10° NNE daylight
11 Dec - 20:47:54 10° N 20:50:53 15° NNE 20:53:42 10° ENE night (unlit)
11 Dec - 22:30:05 10° NNW 22:35:10 70° ENE 22:39:43 10° SE night (unlit)
12 Dec - 00:14:58 10° WNW 00:17:32 14° WSW 00:20:00 10° SW night (unlit)
12 Dec - 13:10:04 10° S 13:15:59 45° ESE 13:21:36 10° NE daylight
12 Dec - 14:53:34 10° WSW 14:59:20 39° NW 15:04:44 10° NNE daylight
12 Dec - 16:42:11 10° NW 16:44:09 12° NNW 16:46:05 10° N visible
12 Dec - 20:14:18 10° N 20:16:18 12° NNE 20:18:13 10° NE visible
12 Dec - 21:55:58 10° NNW 22:00:55 48° NE 22:05:23 10° SE night (unlit)
12 Dec - 23:39:57 10° WNW 23:43:39 22° WSW 23:47:07 10° SSW night (unlit)
13 Dec - 12:36:29 10° S 12:41:57 32° ESE 12:47:10 10° NE daylight
13 Dec - 14:18:59 10° SW 14:25:02 51° NW 14:30:41 10° NNE daylight
13 Dec - 16:06:26 10° WNW 16:09:33 14° NNW 16:12:32 10° N daylight
13 Dec - 21:21:55 10° NNW 21:26:36 35° NE 21:30:51 10° ESE night (unlit)
13 Dec - 23:05:20 10° NW 23:09:42 32° WSW 23:13:44 10° S night (unlit)
